Torna al catalogo

STARLINK-34256

AttivoComunicazioniVLEO
NORAD 64249·PAYLOAD·🇺🇸 United States

Lanciato Jun 3, 2025 da Cape Canaveral Space Force Station

Loading…

Prossimi Passaggi (prossime 24 ore)

TLE

AggiornatoSource: CelesTrak SupGP

Epoca: Sep 15, 2026, 03:07 UTC

1 64249C 25119S   26258.13034722  .00041013  00000+0  14856-2 0  2580
2 64249  43.0013 316.9965 0001519 266.4084 107.4134 15.27555965    14

Traccia STARLINK-34256 in tempo reale con AllMySat

Download on the App Store